EHI
0 0 0 0 0 1 1 1 1 0 0 0 1 1 1 2 3 3 3 3 3 3 3 4 4 4 6 7 9 10 10 9 8 7 7 6 6 5 4 4 4 4 3
0 0 0 0 0 1 1 2 2 1 1 1 2 2 2 3 3 3 3 3 3 3 3 4 4 4 5 7 8 9 10 9 9 8 7 7 6 6 6 6 5 4 4
0 0 0 0 0 1 2 3 3 3 2 2 2 3 3 3 3 3 3 3 3 3 3 4 4 4 4 5 7 9 10 10 10 9 9 7 7 6 6 6 6 6 6
0 0 0 0 0 1 3 3 3 3 3 2 2 2 3 3 3 3 3 3 3 3 3 3 4 3 4 4 6 7 9 9 9 10 9 9 7 7 6 6 6 6 6
0 0 0 0 1 2 3 3 3 3 3 2 2 3 3 3 3 3 3 3 3 4 4 4 4 4 5 6 7 7 7 8 9 10 10 9 8 7 6 5 4 4 4
0 0 1 1 2 3 3 3 3 3 3 3 3 3 3 3 3 3 3 3 4 4 5 5 5 5 5 7 8 8 9 9 9 9 9 9 9 7 5 4 3 3 3
1 1 2 3 3 3 3 3 3 3 3 3 3 3 3 3 3 3 3 3 3 4 4 4 4 4 4 5 6 8 10 10 9 8 8 8 9 8 5 2 2 3 3
2 2 3 3 3 3 3 3 3 3 3 3 3 3 3 3 3 3 3 3 3 3 3 3 3 3 3 2 3 5 7 9 8 7 8 9 8 7 5 3 3 3 3
2 3 3 3 3 3 3 3 3 3 3 3 3 3 3 3 3 3 3 3 3 3 3 3 3 3 3 2 1 2 4 6 7 7 9 12 11 8 6 5 4 4 4
3 3 3 3 3 3 3 3 3 3 3 3 3 3 3 3 3 3 3 3 3 3 3 3 3 3 3 2 1 1 2 4 5 6 10 14 15 13 10 7 6 5 5
3 3 3 3 3 4 4 4 3 3 3 3 3 3 3 3 3 3 3 3 3 3 3 3 3 3 3 2 1 1 2 3 3 4 7 10 13 13 12 9 7 6 7
4 4 3 3 4 4 5 4 4 4 3 3 3 3 3 3 3 3 3 3 3 2 1 1 2 3 3 1 0 1 2 1 1 2 3 5 7 8 9 9 8 8 8
6 5 5 5 5 5 5 4 4 4 4 4 4 4 4 3 3 3 3 3 3 1 0 0 1 2 2 1 0 2 2 1 0 1 1 2 3 3 4 5 6 6 6
6 7 8 8 8 7 5 4 3 4 5 6 6 6 5 5 4 4 3 3 3 2 1 0 0 1 1 1 0 1 1 1 0 0 0 1 1 1 2 2 2 2 2
6 8 10 9 9 8 6 4 4 4 5 6 7 6 6 5 5 4 3 4 5 5 3 1 0 1 1 0 0 0 0 0 0 0 0 0 0 0 0 0 0 0 0
7 8 9 9 8 8 7 5 5 6 6 7 7 6 4 4 4 4 3 4 6 7 5 3 2 2 1 0 0 0 0 0 0 0 0 0 0 0 0 0 0 0 0
7 7 8 8 9 8 8 7 8 9 9 9 8 5 4 4 4 4 4 5 6 6 6 5 4 3 1 0 0 1 0 0 0 0 0 0 0 0 0 0 0 0 0
7 7 7 8 8 8 8 8 10 11 11 10 8 6 5 6 5 5 5 5 5 5 5 4 3 3 1 0 1 2 1 0 0 0 0 0 0 0 0 0 0 0 0
7 6 6 6 5 5 6 8 11 11 9 9 8 7 8 8 6 5 5 4 4 4 4 3 2 3 2 1 1 1 1 1 0 0 0 0 0 0 0 0 0 0 0
7 6 5 5 4 4 5 8 11 11 9 8 8 7 8 9 7 6 5 4 4 3 4 3 3 3 3 2 1 1 1 1 1 0 0 0 0 0 0 0 0 0 0
8 9 8 7 7 6 6 8 11 12 10 7 7 7 7 7 7 6 5 4 3 3 3 2 3 3 2 1 1 2 2 2 1 0 0 0 0 0 0 0 0 0 0
11 12 13 12 10 8 6 6 9 10 9 6 6 7 7 6 4 4 3 2 2 3 2 1 2 1 1 0 0 1 2 1 1 0 0 0 0 0 0 0 0 0 0
15 16 17 15 11 7 5 4 5 7 6 6 6 7 8 6 3 3 2 2 2 1 1 1 1 0 0 0 0 0 0 0 0 0 0 0 0 0 0 0 0 0 0
18 19 19 17 13 7 4 3 3 4 4 5 6 8 9 7 4 3 5 5 3 2 1 0 0 0 0 0 0 0 0 0 0 0 0 0 0 0 0 0 0 0 0
19 19 19 19 16 10 4 1 1 3 4 5 6 7 7 5 3 3 6 7 5 3 2 1 0 0 0 0 0 0 0 0 0 0 0 0 0 0 0 0 0 0 0
18 17 17 19 18 13 5 1 1 3 5 6 6 5 4 2 1 2 6 8 6 4 3 2 1 0 0 0 0 0 0 0 0 0 0 0 0 0 0 0 0 0 0
Wind_Speed
1 1 1 1 1 1 1 1 1 1 1 2 2 2 3 3 3 3 2 7 8 9 10 10 10 10 11 11 11 11 10 10 10 10 10 10 10 10 9 9 9 9 9
2 2 1 1 1 1 1 1 2 1 1 1 2 2 3 3 3 3 3 5 8 9 10 10 10 11 11 11 11 11 11 11 10 11 11 11 10 10 10 10 10 10 10
3 2 2 2 2 1 1 1 1 1 1 1 2 2 2 3 4 4 4 3 4 8 10 10 11 11 12 12 12 12 12 11 11 11 11 11 11 10 10 10 11 11 10
3 3 2 2 2 1 1 1 1 0 1 1 1 2 2 2 4 4 4 4 4 4 7 10 11 11 12 13 13 13 13 12 12 12 12 12 12 11 11 11 12 11 11
4 3 2 2 2 1 1 1 1 1 1 1 1 1 2 2 2 3 4 4 4 4 4 6 9 10 12 13 13 13 13 13 13 13 13 13 13 13 13 12 12 12 11
4 3 2 2 2 1 1 1 1 1 1 1 1 1 1 1 1 2 3 2 3 4 4 4 4 6 9 10 10 11 12 12 12 13 13 14 13 12 13 13 13 12 12
4 3 3 2 2 2 2 2 2 1 0 1 1 2 2 1 1 1 1 1 2 3 3 3 3 3 3 5 7 8 9 10 10 10 11 11 11 11 11 12 12 12 12
4 4 3 3 3 2 2 2 2 1 1 1 1 0 2 3 2 1 1 1 2 1 2 3 3 3 3 3 3 6 7 8 8 8 9 10 10 9 10 11 11 11 11
4 4 4 3 3 3 3 3 3 3 2 1 1 2 1 2 2 2 1 1 1 1 2 2 2 3 3 3 3 4 6 6 7 7 6 7 7 7 7 8 9 9 10
4 4 4 4 4 3 3 3 3 3 3 2 1 1 2 2 1 2 2 1 2 2 2 2 2 2 3 2 2 4 4 4 5 5 5 5 5 5 6 6 6 7 7
4 4 4 4 4 3 4 3 3 4 3 3 2 2 1 1 1 2 2 2 2 2 2 2 2 2 2 2 2 3 3 4 4 4 3 3 3 4 4 5 5 6 6
3 4 4 4 4 4 4 4 4 4 4 3 3 2 2 2 3 3 3 2 2 2 2 1 1 2 2 2 2 2 3 2 2 3 3 3 3 2 2 3 3 4 4
3 4 4 4 4 4 4 4 4 4 4 4 4 3 3 3 3 3 2 2 2 2 2 1 1 1 1 1 2 2 2 2 2 2 2 2 2 2 2 2 2 2 2
5 4 4 4 4 4 4 4 3 4 4 4 5 4 3 4 3 3 3 2 2 2 2 2 1 1 1 1 2 2 2 2 3 3 3 2 2 2 2 2 1 1 1
4 4 4 4 4 4 4 4 4 4 4 4 5 5 4 3 3 4 3 3 3 2 3 2 1 1 1 1 2 2 2 3 3 3 3 3 3 3 3 2 2 2 2
4 4 4 5 5 5 5 5 4 4 4 4 4 4 4 3 3 3 3 3 3 3 3 2 2 2 2 2 1 2 2 3 3 3 3 3 3 3 3 3 3 2 2
5 5 5 5 5 5 5 5 5 5 5 5 4 4 5 3 3 3 3 3 3 3 4 3 2 2 2 3 2 2 2 2 2 3 4 4 4 4 4 4 3 3 3
5 5 5 5 6 5 5 6 6 5 6 5 5 4 5 3 4 3 3 4 4 4 4 4 2 2 3 3 3 3 2 2 2 3 4 4 4 4 4 4 4 4 3
4 4 4 5 6 6 5 6 6 5 6 6 5 6 6 5 5 4 4 4 3 3 3 3 3 2 1 2 2 2 2 2 2 3 4 5 5 5 5 5 5 5 4
5 5 5 5 6 5 5 5 5 5 5 6 6 6 6 6 6 5 5 5 4 3 3 3 3 2 2 1 2 2 2 2 2 2 3 3 4 5 6 6 6 5 5
5 5 5 5 5 5 5 5 5 5 5 5 5 5 6 7 7 6 5 4 4 4 3 3 3 2 2 2 3 2 3 2 2 2 2 2 2 3 4 6 7 7 6
4 4 5 6 6 5 6 7 6 5 5 5 4 4 5 5 6 7 7 7 7 6 5 4 4 4 5 4 3 3 3 2 3 2 3 3 3 4 4 4 6 8 8
4 4 5 4 5 5 6 6 6 5 5 4 4 3 3 3 4 4 4 5 6 7 8 6 6 6 5 5 5 5 5 4 4 2 3 3 3 4 4 4 7 8 9
4 4 5 4 4 5 6 6 6 6 5 5 4 4 4 4 3 4 3 3 4 5 6 6 6 7 6 5 6 6 5 4 2 2 3 3 3 3 3 3 6 9 9
4 4 4 4 4 5 6 7 6 4 4 5 5 5 5 5 4 3 3 4 4 4 5 6 6 6 6 6 5 3 3 3 3 3 4 3 2 2 2 3 4 7 8
5 4 4 4 5 5 6 7 7 4 4 4 4 4 6 5 5 4 4 5 5 5 3 3 4 4 4 4 6 6 5 4 3 3 4 4 2 2 2 2 2 3 4
Wind_Direction
195 197 211 222 231 205 192 201 211 227 244 249 239 228 226 225 223 215 230 232 230 226 225 224 222 222 222 220 220 219 217 215 213 212 215 219 221 221 222 222 224 225 224
195 198 218 233 238 221 208 211 227 230 246 243 247 239 236 235 233 227 229 240 238 230 229 230 228 228 229 226 225 224 225 221 220 219 221 223 226 229 229 228 229 229 230
195 192 204 226 233 222 213 219 242 235 253 245 252 255 248 242 234 232 230 235 243 239 234 234 233 234 234 231 229 228 229 227 226 225 224 224 226 229 232 234 234 233 233
193 185 198 221 218 191 185 203 219 220 261 252 257 263 258 251 245 241 237 238 239 244 242 239 238 237 237 237 236 234 232 231 230 229 227 228 229 230 232 235 237 236 235
191 184 201 213 192 180 193 215 177 185 233 247 253 258 263 256 257 254 246 245 241 244 246 250 245 240 239 240 240 240 238 234 232 232 233 234 234 233 233 234 236 236 237
189 182 198 206 183 179 195 185 180 184 215 237 284 305 295 273 259 259 259 258 252 252 251 252 252 251 247 245 243 244 245 243 239 237 236 237 238 237 235 234 235 237 238
192 184 195 183 178 186 202 190 177 181 197 120 65 335 327 318 282 266 262 264 269 259 249 243 241 243 251 249 245 247 251 250 243 238 236 238 239 238 236 235 234 235 238
195 195 191 189 185 182 190 188 173 162 183 141 144 72 340 341 332 308 279 256 271 272 269 251 231 226 231 234 239 243 248 253 250 244 240 240 241 237 236 236 234 234 235
198 198 194 192 190 186 197 196 179 175 193 196 172 157 169 257 312 328 327 319 320 308 282 267 241 231 226 226 238 247 245 249 255 253 247 243 237 233 232 234 234 234 234
204 200 196 194 195 194 199 203 188 186 176 198 206 204 196 180 200 313 325 330 317 296 281 271 262 243 228 222 226 236 246 252 255 255 251 246 242 231 227 231 236 233 232
212 206 197 194 197 199 204 204 188 189 188 192 193 188 189 186 193 214 279 311 322 301 284 267 259 252 235 219 221 233 239 246 253 254 250 250 247 239 232 229 235 238 237
216 215 205 201 201 201 204 207 200 196 200 201 201 198 190 188 194 198 232 266 291 298 296 279 259 256 247 232 229 224 228 234 236 244 251 254 247 242 243 230 230 236 232
214 217 210 206 206 207 205 200 197 204 203 204 210 215 216 218 191 186 205 242 266 286 292 284 257 255 252 246 243 224 222 218 221 229 224 221 222 224 219 213 223 226 224
217 209 202 211 215 210 207 198 208 211 207 213 221 219 223 226 205 196 196 198 243 271 270 269 282 249 263 246 243 226 220 205 207 206 210 208 200 192 190 190 189 195 193
211 206 203 210 216 213 205 196 216 218 212 218 224 224 229 232 213 214 207 197 200 238 261 244 254 266 256 241 237 221 216 209 207 208 211 203 191 184 179 172 162 152 153
207 193 195 208 214 212 206 204 212 217 221 228 224 224 231 235 224 216 212 213 212 214 238 238 235 253 252 253 242 233 228 213 209 208 206 200 195 188 183 179 172 167 162
199 203 206 208 214 216 210 206 213 213 220 231 230 226 233 226 226 221 209 210 213 207 232 253 238 250 231 238 249 251 238 227 227 216 207 204 200 194 191 187 184 180 176
204 209 207 209 217 217 210 210 217 216 217 225 230 228 237 230 229 223 215 219 219 213 214 240 244 230 233 233 233 242 245 243 244 230 218 213 205 200 196 193 192 189 188
203 209 211 216 220 217 212 213 214 217 219 224 225 227 234 224 230 228 223 225 227 223 211 218 240 230 239 226 234 245 238 244 244 233 227 223 214 209 207 205 205 201 201
201 206 215 218 219 217 215 214 214 218 223 228 227 226 227 222 227 229 229 229 223 220 212 217 234 236 235 221 208 227 245 241 248 244 232 224 217 215 212 213 213 209 208
211 211 215 219 221 218 218 213 213 215 221 232 235 233 232 228 229 227 229 223 212 213 215 224 235 230 225 210 219 212 234 252 253 230 222 229 225 230 225 223 220 215 210
212 209 216 219 223 228 226 213 207 215 217 221 233 243 242 234 237 235 234 225 213 212 219 224 231 234 232 222 211 212 214 222 248 204 212 243 223 237 235 229 222 213 208
212 215 219 216 224 232 229 219 208 205 212 215 221 231 248 251 237 237 238 231 226 226 219 216 229 236 231 218 205 213 214 221 236 204 198 241 227 241 238 233 219 216 211
210 220 225 222 226 233 221 215 209 208 213 216 216 219 228 245 245 231 234 235 237 236 229 224 231 237 237 224 210 214 216 218 240 208 193 230 230 242 243 235 218 213 212
210 217 220 222 226 238 224 214 207 210 214 221 222 218 219 227 240 225 224 237 247 253 240 232 239 248 250 237 212 194 198 208 238 229 199 209 218 246 254 242 223 209 212
210 210 222 223 222 231 227 217 206 208 216 227 229 227 227 226 227 210 213 224 238 248 253 260 260 263 253 235 211 206 206 211 224 229 195 193 200 195 242 233 220 209 210